SBI2566 UNOO-UUDD

Flight info

Callsign SBI2566
Flight time 3h 2m
Altitude 36000
Route NANOL B814 OSMIK A231 PEMAG L158 APTAR T787 URAGO URAGO3P
Aircraft A320/M-SDE3FGHIRWY/LB1

Departure

Time 2026-04-25 06:25
Airport Omsk Central Airport (UNOO)

Arrival

Time 2026-04-25 09:27
Airport Domodedovo International Airport (UUDD)
Time Latitude Longitude Altitude Speed Heading
2026-04-25 06:14 54.95994 73.31508 311 ft 0 kts 167°
2026-04-25 06:21 54.95980 73.31530 310 ft 6 kts 101°
2026-04-25 06:21 54.96015 73.31632 310 ft 14 kts 46°
2026-04-25 06:21 54.96078 73.31748 309 ft 13 kts 46°
2026-04-25 06:22 54.96136 73.31854 311 ft 12 kts 46°
2026-04-25 06:22 54.96221 73.32007 308 ft 24 kts 46°
2026-04-25 06:22 54.96351 73.32194 309 ft 25 kts 37°
2026-04-25 06:22 54.96460 73.32263 305 ft 13 kts 47°
2026-04-25 06:23 54.96487 73.32410 305 ft 14 kts 72°
2026-04-25 06:23 54.96517 73.32642 305 ft 22 kts 76°
2026-04-25 06:23 54.96552 73.32905 304 ft 22 kts 77°
2026-04-25 06:23 54.96624 73.33046 305 ft 15 kts 351°
2026-04-25 06:24 54.96719 73.33009 305 ft 14 kts 346°
2026-04-25 06:24 54.96860 73.32950 303 ft 24 kts 347°
2026-04-25 06:24 54.96960 73.32863 302 ft 10 kts 261°
2026-04-25 06:24 54.96944 73.32751 305 ft 12 kts 258°
2026-04-25 06:25 54.96881 73.32279 308 ft 75 kts 258°
2026-04-25 06:25 54.96715 73.31035 310 ft 133 kts 257°
2026-04-25 06:25 54.96469 73.29234 523 ft 159 kts 252°
2026-04-25 06:25 54.96231 73.27399 1164 ft 156 kts 251°
2026-04-25 06:26 54.95981 73.25518 1758 ft 161 kts 249°
2026-04-25 06:26 54.95707 73.23518 2010 ft 183 kts 253°
2026-04-25 06:26 54.95395 73.21239 2304 ft 203 kts 252°
2026-04-25 06:26 54.95047 73.18705 2591 ft 228 kts 253°
2026-04-25 06:27 54.94665 73.15908 3173 ft 243 kts 252°
2026-04-25 06:27 54.94275 73.13015 3977 ft 247 kts 252°
2026-04-25 06:27 54.93882 73.10091 4822 ft 250 kts 252°
2026-04-25 06:27 54.93520 73.07405 5634 ft 251 kts 252°
2026-04-25 06:28 54.93151 73.04425 6485 ft 256 kts 257°
2026-04-25 06:28 54.93042 73.01308 7274 ft 262 kts 264°
2026-04-25 06:28 54.93087 72.98117 8080 ft 265 kts 266°
2026-04-25 06:28 54.93183 72.94890 8873 ft 269 kts 267°
2026-04-25 06:29 54.93278 72.91633 9662 ft 272 kts 266°
2026-04-25 06:29 54.93358 72.88313 10266 ft 281 kts 266°
2026-04-25 06:29 54.93421 72.84788 10463 ft 303 kts 266°
2026-04-25 06:29 54.93474 72.80992 10657 ft 324 kts 266°
2026-04-25 06:30 54.93524 72.77034 11212 ft 331 kts 266°
2026-04-25 06:30 54.93575 72.73019 11934 ft 333 kts 266°
2026-04-25 06:30 54.93623 72.68990 12673 ft 334 kts 266°
2026-04-25 06:30 54.93669 72.64943 13435 ft 335 kts 266°
2026-04-25 06:31 54.93714 72.60893 14108 ft 336 kts 266°
2026-04-25 06:31 54.93795 72.56811 14702 ft 341 kts 271°
2026-04-25 06:31 54.94269 72.52720 15273 ft 351 kts 282°
2026-04-25 06:31 54.95242 72.48763 15841 ft 361 kts 292°
2026-04-25 06:32 54.96427 72.44889 16415 ft 364 kts 292°
2026-04-25 06:32 54.97620 72.40979 16984 ft 367 kts 292°
2026-04-25 06:32 54.98818 72.37031 17574 ft 370 kts 292°
2026-04-25 06:32 55.00019 72.33056 18127 ft 373 kts 292°
2026-04-25 06:33 55.01231 72.29033 18618 ft 376 kts 292°
2026-04-25 06:33 55.02448 72.24980 19149 ft 379 kts 292°
2026-04-25 06:33 55.03673 72.20897 19683 ft 381 kts 292°
2026-04-25 06:33 55.04903 72.16779 20177 ft 383 kts 292°
2026-04-25 06:34 55.06137 72.12644 20668 ft 386 kts 292°
2026-04-25 06:34 55.07381 72.08480 21138 ft 389 kts 292°
2026-04-25 06:34 55.08632 72.04286 21605 ft 391 kts 292°
2026-04-25 06:34 55.09890 72.00059 22062 ft 393 kts 292°
2026-04-25 06:35 55.11154 71.95801 22513 ft 396 kts 292°
2026-04-25 06:35 55.12424 71.91522 22953 ft 398 kts 292°
2026-04-25 06:35 55.13700 71.87212 23369 ft 400 kts 292°
2026-04-25 06:35 55.14977 71.82886 23712 ft 402 kts 292°
2026-04-25 06:36 55.16263 71.78521 24047 ft 405 kts 292°
2026-04-25 06:36 55.17556 71.74128 24385 ft 407 kts 292°
2026-04-25 06:36 55.18847 71.69724 24712 ft 409 kts 292°
2026-04-25 06:36 55.20146 71.65287 25039 ft 411 kts 292°
2026-04-25 06:37 55.21456 71.60816 25362 ft 413 kts 292°
2026-04-25 06:37 55.22764 71.56349 25677 ft 414 kts 292°
2026-04-25 06:37 55.24083 71.51825 25983 ft 416 kts 292°
2026-04-25 06:37 55.25398 71.47297 26319 ft 418 kts 292°
2026-04-25 06:38 55.26716 71.42749 26630 ft 419 kts 292°
2026-04-25 06:38 55.28041 71.38179 26920 ft 421 kts 292°
2026-04-25 06:38 55.29369 71.33591 27202 ft 423 kts 292°
2026-04-25 06:38 55.30693 71.29004 27474 ft 425 kts 291°
2026-04-25 06:39 55.32034 71.24343 27740 ft 426 kts 291°
2026-04-25 06:39 55.33369 71.19688 27997 ft 428 kts 291°
2026-04-25 06:39 55.34682 71.14987 28238 ft 428 kts 288°
2026-04-25 06:39 55.35659 71.10071 28476 ft 424 kts 280°
2026-04-25 06:40 55.36275 71.05024 28698 ft 423 kts 277°
2026-04-25 06:40 55.36857 70.99950 28994 ft 424 kts 277°
2026-04-25 06:40 55.37440 70.94931 29261 ft 424 kts 277°
2026-04-25 06:40 55.38030 70.89857 29597 ft 423 kts 276°
2026-04-25 06:41 55.38614 70.84802 29916 ft 422 kts 276°
2026-04-25 06:41 55.39192 70.79760 30201 ft 420 kts 276°
2026-04-25 06:41 55.39769 70.74718 30494 ft 419 kts 276°
2026-04-25 06:41 55.40341 70.69698 30760 ft 418 kts 276°
2026-04-25 06:42 55.40909 70.64685 31035 ft 417 kts 276°
2026-04-25 06:42 55.41472 70.59687 31311 ft 416 kts 276°
2026-04-25 06:42 55.42033 70.54694 31579 ft 415 kts 275°
2026-04-25 06:42 55.42592 70.49710 31845 ft 414 kts 275°
2026-04-25 06:43 55.43144 70.44751 32113 ft 413 kts 275°
2026-04-25 06:43 55.43693 70.39784 32379 ft 412 kts 275°
2026-04-25 06:43 55.44237 70.34824 32645 ft 412 kts 275°
2026-04-25 06:43 55.44778 70.29886 32913 ft 411 kts 275°
2026-04-25 06:44 55.45320 70.24942 33170 ft 410 kts 275°
2026-04-25 06:44 55.45858 70.20014 33433 ft 409 kts 275°
2026-04-25 06:44 55.46391 70.15093 33729 ft 408 kts 274°
2026-04-25 06:44 55.46922 70.10188 33960 ft 407 kts 274°
2026-04-25 06:45 55.47451 70.05280 34188 ft 407 kts 274°
2026-04-25 06:45 55.47975 70.00387 34461 ft 406 kts 274°
2026-04-25 06:45 55.48489 69.95565 34723 ft 405 kts 274°
2026-04-25 06:45 55.49007 69.90683 34910 ft 405 kts 274°
2026-04-25 06:46 55.49524 69.85798 35053 ft 406 kts 274°
2026-04-25 06:46 55.50050 69.80845 35201 ft 406 kts 274°
2026-04-25 06:46 55.50561 69.76007 35344 ft 407 kts 274°
2026-04-25 06:46 55.51076 69.71101 35482 ft 407 kts 274°
2026-04-25 06:47 55.51587 69.66177 35631 ft 408 kts 274°
2026-04-25 06:47 55.52099 69.61240 35765 ft 409 kts 274°
2026-04-25 06:47 55.52610 69.56297 35795 ft 411 kts 274°
2026-04-25 06:48 55.53634 69.46379 35793 ft 411 kts 274°
2026-04-25 06:48 55.54653 69.36441 35785 ft 410 kts 274°
2026-04-25 06:49 55.55654 69.26512 35775 ft 410 kts 274°
2026-04-25 06:49 55.56345 69.16593 35782 ft 402 kts 264°
2026-04-25 06:50 55.56226 69.06782 35774 ft 402 kts 263°
2026-04-25 06:50 55.56100 68.96906 35782 ft 402 kts 263°
2026-04-25 06:51 55.55971 68.87031 35808 ft 402 kts 263°
2026-04-25 06:51 55.55839 68.77150 35797 ft 402 kts 262°
2026-04-25 06:52 55.55698 68.67280 35794 ft 402 kts 262°
2026-04-25 06:52 55.55544 68.57419 35791 ft 402 kts 262°
2026-04-25 06:53 55.55377 68.47557 35786 ft 402 kts 262°
2026-04-25 06:53 55.55201 68.37701 35788 ft 402 kts 262°
2026-04-25 06:54 55.55026 68.27844 35799 ft 401 kts 262°
2026-04-25 06:54 55.54849 68.17991 35791 ft 401 kts 262°
2026-04-25 06:55 55.54661 68.08226 35782 ft 400 kts 262°
2026-04-25 06:55 55.54462 67.98395 35777 ft 400 kts 262°
2026-04-25 06:56 55.54313 67.88557 35776 ft 401 kts 262°
2026-04-25 06:56 55.54179 67.78737 35774 ft 400 kts 262°
2026-04-25 06:57 55.54022 67.68914 35797 ft 400 kts 262°
2026-04-25 06:57 55.53845 67.59069 35787 ft 401 kts 262°
2026-04-25 06:58 55.53663 67.49220 35778 ft 401 kts 262°
2026-04-25 06:58 55.53479 67.39431 35774 ft 402 kts 262°
2026-04-25 06:59 55.53276 67.29574 35813 ft 402 kts 262°
2026-04-25 06:59 55.53078 67.19698 35791 ft 403 kts 262°
2026-04-25 07:00 55.52874 67.09820 35803 ft 403 kts 262°
2026-04-25 07:00 55.52687 67.01597 35785 ft 403 kts 262°
2026-04-25 07:01 55.52452 66.91694 35774 ft 404 kts 262°
2026-04-25 07:01 55.52214 66.81791 35771 ft 404 kts 262°
2026-04-25 07:02 55.51978 66.71874 35773 ft 405 kts 262°
2026-04-25 07:02 55.51727 66.61942 35775 ft 405 kts 262°
2026-04-25 07:03 55.51464 66.52004 35775 ft 405 kts 262°
2026-04-25 07:03 55.51196 66.42129 35779 ft 405 kts 262°
2026-04-25 07:04 55.50908 66.32140 35780 ft 405 kts 261°
2026-04-25 07:04 55.50580 66.22292 35785 ft 405 kts 261°
2026-04-25 07:05 55.50228 66.12397 35780 ft 405 kts 261°
2026-04-25 07:05 55.49873 66.02474 35780 ft 405 kts 261°
2026-04-25 07:06 55.49512 65.92570 35812 ft 405 kts 261°
2026-04-25 07:06 55.49140 65.82667 35801 ft 405 kts 261°
2026-04-25 07:07 55.48763 65.72750 35792 ft 405 kts 261°
2026-04-25 07:07 55.48389 65.62839 35814 ft 405 kts 261°
2026-04-25 07:08 55.48002 65.52921 35803 ft 405 kts 260°
2026-04-25 07:08 55.47592 65.43017 35800 ft 405 kts 260°
2026-04-25 07:09 55.47405 65.33056 35818 ft 408 kts 264°
2026-04-25 07:09 55.47513 65.23108 35805 ft 409 kts 265°
2026-04-25 07:10 55.47619 65.13093 35799 ft 408 kts 264°
2026-04-25 07:10 55.47652 65.03092 35785 ft 407 kts 263°
2026-04-25 07:11 55.47640 64.93121 35784 ft 407 kts 263°
2026-04-25 07:11 55.47621 64.83142 35780 ft 407 kts 263°
2026-04-25 07:12 55.47611 64.73177 35796 ft 407 kts 263°
2026-04-25 07:12 55.47580 64.58204 35779 ft 407 kts 263°
2026-04-25 07:13 55.47535 64.48223 35774 ft 407 kts 263°
2026-04-25 07:13 55.47509 64.38235 35766 ft 408 kts 263°
2026-04-25 07:14 55.47512 64.28231 35796 ft 408 kts 263°
2026-04-25 07:14 55.47497 64.18302 35787 ft 408 kts 263°
2026-04-25 07:15 55.47472 64.08236 35777 ft 408 kts 263°
2026-04-25 07:15 55.47441 63.98285 35757 ft 408 kts 263°
2026-04-25 07:16 55.47397 63.88284 35755 ft 408 kts 263°
2026-04-25 07:16 55.47346 63.78297 35753 ft 408 kts 263°
2026-04-25 07:17 55.47291 63.68290 35753 ft 408 kts 263°
2026-04-25 07:17 55.47232 63.58274 35754 ft 408 kts 263°
2026-04-25 07:18 55.47156 63.48265 35774 ft 408 kts 262°
2026-04-25 07:18 55.47072 63.38242 35763 ft 409 kts 262°
2026-04-25 07:19 55.46984 63.28295 35747 ft 409 kts 262°
2026-04-25 07:19 55.46889 63.18276 35745 ft 409 kts 262°
2026-04-25 07:20 55.46782 63.08256 35741 ft 409 kts 262°
2026-04-25 07:20 55.46498 62.98297 35763 ft 405 kts 257°
2026-04-25 07:21 55.45830 62.88450 35748 ft 405 kts 257°
2026-04-25 07:21 55.45160 62.78604 35722 ft 405 kts 257°
2026-04-25 07:22 55.44488 62.68742 35721 ft 405 kts 257°
2026-04-25 07:22 55.43804 62.58888 35721 ft 406 kts 257°
2026-04-25 07:23 55.43121 62.49079 35718 ft 406 kts 257°
2026-04-25 07:23 55.42419 62.39208 35720 ft 406 kts 257°
2026-04-25 07:24 55.41715 62.29336 35728 ft 406 kts 257°
2026-04-25 07:24 55.40998 62.19474 35721 ft 407 kts 257°
2026-04-25 07:25 55.40268 62.09604 35715 ft 407 kts 257°
2026-04-25 07:25 55.39530 61.99732 35714 ft 407 kts 257°
2026-04-25 07:26 55.38788 61.89861 35712 ft 407 kts 257°
2026-04-25 07:26 55.38044 61.80008 35729 ft 407 kts 257°
2026-04-25 07:27 55.37284 61.70133 35753 ft 407 kts 256°
2026-04-25 07:27 55.36516 61.60281 35750 ft 407 kts 256°
2026-04-25 07:28 55.35748 61.50401 35745 ft 408 kts 256°
2026-04-25 07:28 55.34968 61.40541 35742 ft 408 kts 256°
2026-04-25 07:29 55.34176 61.30715 35736 ft 408 kts 256°
2026-04-25 07:29 55.33375 61.20848 35718 ft 408 kts 256°
2026-04-25 07:30 55.32565 61.10963 35724 ft 409 kts 256°
2026-04-25 07:30 55.31748 61.01059 35707 ft 410 kts 256°
2026-04-25 07:31 55.30922 60.91148 35695 ft 410 kts 256°
2026-04-25 07:31 55.30085 60.81240 35695 ft 411 kts 256°
2026-04-25 07:32 55.29238 60.71308 35694 ft 411 kts 256°
2026-04-25 07:32 55.28382 60.61401 35695 ft 411 kts 256°
2026-04-25 07:33 55.27518 60.51490 35696 ft 411 kts 256°
2026-04-25 07:33 55.26648 60.41582 35700 ft 411 kts 256°
2026-04-25 07:34 55.25774 60.31678 35696 ft 411 kts 255°
2026-04-25 07:34 55.24885 60.21775 35696 ft 411 kts 255°
2026-04-25 07:35 55.23991 60.11877 35699 ft 412 kts 256°
2026-04-25 07:35 55.23337 60.01886 35725 ft 414 kts 259°
2026-04-25 07:36 55.22880 59.91875 35713 ft 415 kts 259°
2026-04-25 07:36 55.22387 59.81800 35708 ft 415 kts 259°
2026-04-25 07:37 55.21831 59.71752 35741 ft 415 kts 259°
2026-04-25 07:37 55.21926 59.61528 35705 ft 422 kts 266°
2026-04-25 07:38 55.22209 59.51238 35704 ft 423 kts 266°
2026-04-25 07:38 55.22480 59.40944 35731 ft 423 kts 266°
2026-04-25 07:39 55.22735 59.30641 35726 ft 423 kts 266°
2026-04-25 07:39 55.22987 59.20329 35724 ft 424 kts 266°
2026-04-25 07:40 55.23235 59.10078 35721 ft 424 kts 266°
2026-04-25 07:40 55.23459 58.99771 35715 ft 424 kts 265°
2026-04-25 07:41 55.23680 58.89457 35718 ft 424 kts 265°
2026-04-25 07:41 55.23900 58.79129 35718 ft 424 kts 265°
2026-04-25 07:42 55.24110 58.68811 35733 ft 424 kts 266°
2026-04-25 07:42 55.24310 58.58474 35725 ft 424 kts 265°
2026-04-25 07:43 55.24494 58.48154 35720 ft 424 kts 265°
2026-04-25 07:43 55.24674 58.37820 35718 ft 424 kts 265°
2026-04-25 07:44 55.24842 58.27483 35717 ft 424 kts 265°
2026-04-25 07:44 55.25007 58.17204 35713 ft 425 kts 265°
2026-04-25 07:45 55.25258 58.06855 35729 ft 427 kts 268°
2026-04-25 07:45 55.25893 57.96470 35721 ft 429 kts 270°
2026-04-25 07:46 55.26619 57.86088 35711 ft 429 kts 270°
2026-04-25 07:46 55.27269 57.75706 35693 ft 428 kts 270°
2026-04-25 07:47 55.27856 57.65313 35682 ft 428 kts 269°
2026-04-25 07:47 55.28424 57.54909 35683 ft 429 kts 269°
2026-04-25 07:48 55.29002 57.44502 35683 ft 429 kts 269°
2026-04-25 07:48 55.29581 57.34064 35688 ft 430 kts 270°
2026-04-25 07:49 55.30147 57.23614 35681 ft 431 kts 269°
2026-04-25 07:49 55.30701 57.13190 35683 ft 431 kts 270°
2026-04-25 07:50 55.31256 57.02694 35668 ft 432 kts 269°
2026-04-25 07:50 55.31797 56.92195 35702 ft 433 kts 270°
2026-04-25 07:51 55.32334 56.81667 35674 ft 433 kts 270°
2026-04-25 07:51 55.32861 56.71136 35652 ft 433 kts 269°
2026-04-25 07:52 55.33378 56.60575 35666 ft 434 kts 269°
2026-04-25 07:52 55.33884 56.50026 35656 ft 434 kts 269°
2026-04-25 07:53 55.34381 56.39459 35644 ft 434 kts 269°
2026-04-25 07:53 55.34788 56.30671 35640 ft 434 kts 269°
2026-04-25 07:54 55.35273 56.20115 35635 ft 434 kts 269°
2026-04-25 07:54 55.35825 56.07837 35640 ft 434 kts 269°
2026-04-25 07:55 55.36208 55.99043 35642 ft 434 kts 269°
2026-04-25 07:55 55.36661 55.88445 35639 ft 435 kts 269°
2026-04-25 07:56 55.37116 55.77827 35628 ft 435 kts 269°
2026-04-25 07:56 55.37557 55.67209 35617 ft 436 kts 269°
2026-04-25 07:57 55.37987 55.56579 35614 ft 436 kts 269°
2026-04-25 07:57 55.38409 55.45940 35615 ft 436 kts 269°
2026-04-25 07:58 55.38818 55.35310 35604 ft 436 kts 269°
2026-04-25 07:58 55.39211 55.24665 35616 ft 436 kts 269°
2026-04-25 07:59 55.39477 55.14013 35594 ft 435 kts 268°
2026-04-25 07:59 55.39607 55.03452 35580 ft 435 kts 267°
2026-04-25 08:00 55.39731 54.92795 35572 ft 436 kts 267°
2026-04-25 08:00 55.39880 54.82106 35571 ft 437 kts 267°
2026-04-25 08:01 55.40043 54.71420 35574 ft 437 kts 267°
2026-04-25 08:01 55.40194 54.60724 35566 ft 437 kts 267°
2026-04-25 08:02 55.40327 54.50034 35562 ft 437 kts 267°
2026-04-25 08:02 55.40448 54.39342 35561 ft 437 kts 267°
2026-04-25 08:03 55.40557 54.28645 35560 ft 437 kts 267°
2026-04-25 08:03 55.40654 54.17942 35566 ft 438 kts 267°
2026-04-25 08:04 55.40747 54.07208 35552 ft 438 kts 268°
2026-04-25 08:04 55.40839 53.96481 35538 ft 439 kts 267°
2026-04-25 08:05 55.40917 53.85805 35530 ft 439 kts 267°
2026-04-25 08:05 55.40991 53.75073 35530 ft 439 kts 267°
2026-04-25 08:06 55.41046 53.64330 35521 ft 439 kts 267°
2026-04-25 08:06 55.41094 53.53587 35508 ft 439 kts 267°
2026-04-25 08:07 55.41130 53.42842 35503 ft 439 kts 267°
2026-04-25 08:07 55.41164 53.32107 35522 ft 439 kts 267°
2026-04-25 08:08 55.41191 53.21341 35514 ft 439 kts 267°
2026-04-25 08:08 55.41214 53.10571 35490 ft 440 kts 267°
2026-04-25 08:09 55.41220 52.99805 35491 ft 440 kts 266°
2026-04-25 08:09 55.41211 52.89052 35483 ft 440 kts 267°
2026-04-25 08:10 55.41194 52.78372 35471 ft 439 kts 266°
2026-04-25 08:10 55.41172 52.67616 35470 ft 439 kts 267°
2026-04-25 08:11 55.41142 52.56861 35468 ft 439 kts 267°
2026-04-25 08:11 55.41093 52.46097 35475 ft 439 kts 266°
2026-04-25 08:12 55.41035 52.35347 35457 ft 440 kts 268°
2026-04-25 08:12 55.40970 52.24545 35451 ft 441 kts 267°
2026-04-25 08:13 55.40901 52.13752 35441 ft 442 kts 267°
2026-04-25 08:14 55.40788 51.97593 35441 ft 442 kts 267°
2026-04-25 08:14 55.40689 51.86762 35439 ft 442 kts 267°
2026-04-25 08:15 55.40582 51.75945 35439 ft 442 kts 267°
2026-04-25 08:15 55.40459 51.65115 35434 ft 443 kts 267°
2026-04-25 08:16 55.40332 51.54285 35440 ft 442 kts 267°
2026-04-25 08:16 55.40207 51.43458 35448 ft 443 kts 267°
2026-04-25 08:17 55.40064 51.32612 35435 ft 443 kts 267°
2026-04-25 08:17 55.39910 51.21782 35430 ft 443 kts 267°
2026-04-25 08:18 55.39741 51.10934 35432 ft 443 kts 267°
2026-04-25 08:18 55.39648 51.00097 35428 ft 443 kts 269°
2026-04-25 08:19 55.39626 50.89252 35426 ft 443 kts 269°
2026-04-25 08:19 55.39589 50.78426 35426 ft 443 kts 269°
2026-04-25 08:20 55.39510 50.67642 35425 ft 443 kts 268°
2026-04-25 08:20 55.39409 50.56796 35435 ft 444 kts 268°
2026-04-25 08:21 55.39313 50.45932 35426 ft 444 kts 268°
2026-04-25 08:21 55.39208 50.35292 35424 ft 445 kts 269°
2026-04-25 08:22 55.39092 50.24409 35424 ft 445 kts 269°
2026-04-25 08:22 55.38967 50.13519 35426 ft 445 kts 268°
2026-04-25 08:23 55.38831 50.02629 35432 ft 445 kts 268°
2026-04-25 08:23 55.39019 49.91742 35438 ft 445 kts 275°
2026-04-25 08:24 55.39569 49.80879 35433 ft 446 kts 275°
2026-04-25 08:24 55.40117 49.70019 35443 ft 446 kts 274°
2026-04-25 08:25 55.40649 49.59140 35434 ft 446 kts 275°
2026-04-25 08:25 55.41163 49.48250 35439 ft 446 kts 274°
2026-04-25 08:26 55.41666 49.37353 35446 ft 446 kts 274°
2026-04-25 08:26 55.42165 49.26459 35443 ft 446 kts 274°
2026-04-25 08:27 55.42653 49.15570 35451 ft 446 kts 274°
2026-04-25 08:27 55.43129 49.04691 35450 ft 446 kts 274°
2026-04-25 08:28 55.43594 48.93806 35455 ft 445 kts 274°
2026-04-25 08:28 55.44051 48.82937 35450 ft 445 kts 275°
2026-04-25 08:29 55.44496 48.72079 35455 ft 444 kts 275°
2026-04-25 08:29 55.44929 48.61213 35456 ft 444 kts 275°
2026-04-25 08:30 55.45358 48.50359 35470 ft 444 kts 275°
2026-04-25 08:30 55.45781 48.39518 35469 ft 443 kts 274°
2026-04-25 08:31 55.46190 48.28668 35464 ft 444 kts 274°
2026-04-25 08:31 55.46594 48.17824 35475 ft 443 kts 275°
2026-04-25 08:32 55.46985 48.06982 35479 ft 444 kts 275°
2026-04-25 08:32 55.47364 47.96112 35470 ft 444 kts 275°
2026-04-25 08:33 55.47731 47.85260 35481 ft 444 kts 275°
2026-04-25 08:33 55.48090 47.74397 35488 ft 443 kts 275°
2026-04-25 08:34 55.48440 47.63546 35487 ft 443 kts 275°
2026-04-25 08:34 55.48780 47.52703 35497 ft 443 kts 275°
2026-04-25 08:35 55.49118 47.41843 35495 ft 443 kts 275°
2026-04-25 08:35 55.49447 47.30999 35491 ft 443 kts 275°
2026-04-25 08:36 55.49748 47.20157 35476 ft 443 kts 275°
2026-04-25 08:36 55.50040 47.09313 35489 ft 443 kts 275°
2026-04-25 08:37 55.50344 46.98467 35499 ft 443 kts 275°
2026-04-25 08:37 55.50647 46.87606 35502 ft 443 kts 275°
2026-04-25 08:38 55.50925 46.76741 35499 ft 443 kts 275°
2026-04-25 08:38 55.51181 46.65897 35502 ft 443 kts 275°
2026-04-25 08:39 55.51394 46.56849 35510 ft 443 kts 275°
2026-04-25 08:39 55.51642 46.45987 35514 ft 443 kts 275°
2026-04-25 08:40 55.51977 46.35123 35516 ft 443 kts 276°
2026-04-25 08:40 55.52435 46.24294 35521 ft 442 kts 277°
2026-04-25 08:41 55.52887 46.13471 35516 ft 442 kts 276°
2026-04-25 08:41 55.53291 46.02629 35518 ft 443 kts 276°
2026-04-25 08:42 55.53679 45.91767 35524 ft 443 kts 276°
2026-04-25 08:42 55.54064 45.80922 35527 ft 443 kts 276°
2026-04-25 08:43 55.54439 45.70095 35525 ft 442 kts 276°
2026-04-25 08:43 55.54797 45.59242 35506 ft 442 kts 276°
2026-04-25 08:44 55.55145 45.48421 35522 ft 441 kts 276°
2026-04-25 08:44 55.55494 45.37600 35528 ft 440 kts 276°
2026-04-25 08:45 55.55829 45.26804 35529 ft 440 kts 276°
2026-04-25 08:45 55.56150 45.16009 35530 ft 440 kts 276°
2026-04-25 08:46 55.56458 45.05222 35538 ft 440 kts 276°
2026-04-25 08:46 55.56756 44.94431 35540 ft 440 kts 276°
2026-04-25 08:47 55.57049 44.83643 35549 ft 439 kts 276°
2026-04-25 08:47 55.57347 44.72863 35528 ft 439 kts 276°
2026-04-25 08:48 55.57624 44.62078 35554 ft 439 kts 276°
2026-04-25 08:48 55.57889 44.51317 35559 ft 438 kts 276°
2026-04-25 08:49 55.58148 44.40575 35544 ft 437 kts 276°
2026-04-25 08:49 55.58395 44.29829 35549 ft 437 kts 276°
2026-04-25 08:50 55.58631 44.19119 35565 ft 436 kts 276°
2026-04-25 08:50 55.58856 44.08401 35553 ft 436 kts 276°
2026-04-25 08:51 55.59073 43.97699 35549 ft 436 kts 276°
2026-04-25 08:51 55.59282 43.87042 35548 ft 435 kts 276°
2026-04-25 08:52 55.59474 43.76278 35552 ft 435 kts 275°
2026-04-25 08:52 55.59555 43.65623 35552 ft 436 kts 274°
2026-04-25 08:53 55.59550 43.54899 35575 ft 436 kts 274°
2026-04-25 08:53 55.59540 43.44166 35581 ft 436 kts 274°
2026-04-25 08:54 55.59550 43.33428 35581 ft 436 kts 274°
2026-04-25 08:54 55.59560 43.22708 35597 ft 436 kts 274°
2026-04-25 08:55 55.59561 43.11992 35598 ft 436 kts 274°
2026-04-25 08:55 55.59544 43.01267 35582 ft 436 kts 274°
2026-04-25 08:56 55.59520 42.90555 35603 ft 435 kts 274°
2026-04-25 08:56 55.59489 42.79858 35616 ft 435 kts 274°
2026-04-25 08:57 55.59441 42.69174 35624 ft 434 kts 273°
2026-04-25 08:57 55.59382 42.58504 35636 ft 434 kts 273°
2026-04-25 08:58 55.59323 42.47838 35626 ft 433 kts 273°
2026-04-25 08:58 55.59253 42.37195 35624 ft 433 kts 273°
2026-04-25 08:59 55.59175 42.26559 35614 ft 432 kts 273°
2026-04-25 08:59 55.59080 42.15944 35633 ft 431 kts 273°
2026-04-25 09:00 55.59044 42.06667 35734 ft 427 kts 275°
2026-04-25 09:00 55.59097 41.96178 35638 ft 429 kts 272°
2026-04-25 09:01 55.58836 41.85609 35647 ft 430 kts 271°
2026-04-25 09:01 55.58604 41.74973 35645 ft 429 kts 272°
2026-04-25 09:02 55.58471 41.64429 35648 ft 429 kts 273°
2026-04-25 09:02 55.58360 41.53953 35655 ft 429 kts 273°
2026-04-25 09:03 55.58210 41.43408 35634 ft 429 kts 272°
2026-04-25 09:03 55.58044 41.32863 35659 ft 428 kts 272°
2026-04-25 09:04 55.57870 41.22348 35676 ft 428 kts 272°
2026-04-25 09:04 55.57689 41.11843 35682 ft 428 kts 272°
2026-04-25 09:05 55.57493 41.01324 35685 ft 427 kts 272°
2026-04-25 09:05 55.57291 40.90837 35697 ft 427 kts 272°
2026-04-25 09:06 55.57081 40.80354 35695 ft 427 kts 272°
2026-04-25 09:06 55.56859 40.69940 35693 ft 426 kts 271°
2026-04-25 09:07 55.56629 40.59501 35676 ft 425 kts 271°
2026-04-25 09:07 55.56390 40.49075 35688 ft 424 kts 271°
2026-04-25 09:07 55.56271 40.43861 35229 ft 426 kts 271°
2026-04-25 09:08 55.56141 40.38610 34193 ft 431 kts 271°
2026-04-25 09:08 55.55998 40.33304 33218 ft 432 kts 271°
2026-04-25 09:08 55.55849 40.28009 32145 ft 432 kts 271°
2026-04-25 09:08 55.55696 40.22694 31072 ft 432 kts 271°
2026-04-25 09:09 55.55540 40.17397 29982 ft 433 kts 271°
2026-04-25 09:09 55.55378 40.12075 28844 ft 432 kts 271°
2026-04-25 09:09 55.55213 40.06808 28001 ft 425 kts 271°
2026-04-25 09:09 55.54972 40.01643 27329 ft 421 kts 266°
2026-04-25 09:10 55.54302 39.96625 26647 ft 421 kts 257°
2026-04-25 09:10 55.53269 39.91790 25952 ft 419 kts 255°
2026-04-25 09:10 55.52214 39.87017 25271 ft 414 kts 254°
2026-04-25 09:10 55.51173 39.82315 24602 ft 410 kts 254°
2026-04-25 09:11 55.49124 39.73028 23323 ft 403 kts 255°
2026-04-25 09:11 55.48111 39.68427 22614 ft 400 kts 254°
2026-04-25 09:11 55.47107 39.63881 22028 ft 395 kts 254°
2026-04-25 09:12 55.46116 39.59412 21459 ft 390 kts 254°
2026-04-25 09:12 55.45130 39.54993 20918 ft 385 kts 254°
2026-04-25 09:12 55.44155 39.50633 20400 ft 381 kts 254°
2026-04-25 09:12 55.43177 39.46260 19896 ft 376 kts 254°
2026-04-25 09:13 55.42234 39.42043 19405 ft 373 kts 254°
2026-04-25 09:13 55.41287 39.37822 18916 ft 369 kts 254°
2026-04-25 09:13 55.40347 39.33627 18416 ft 366 kts 254°
2026-04-25 09:13 55.39416 39.29486 17917 ft 363 kts 254°
2026-04-25 09:14 55.38488 39.25370 17370 ft 360 kts 253°
2026-04-25 09:14 55.37568 39.21300 16864 ft 356 kts 253°
2026-04-25 09:14 55.36657 39.17286 16356 ft 353 kts 253°
2026-04-25 09:14 55.35747 39.13289 15836 ft 350 kts 253°
2026-04-25 09:15 55.34845 39.09330 15326 ft 348 kts 253°
2026-04-25 09:15 55.33946 39.05383 14799 ft 347 kts 253°
2026-04-25 09:15 55.33051 39.01456 14279 ft 345 kts 252°
2026-04-25 09:15 55.32159 38.97552 13749 ft 344 kts 252°
2026-04-25 09:16 55.31267 38.93658 13188 ft 343 kts 252°
2026-04-25 09:16 55.30378 38.89791 12645 ft 340 kts 252°
2026-04-25 09:16 55.29496 38.85954 12109 ft 337 kts 252°
2026-04-25 09:16 55.28624 38.82159 11577 ft 333 kts 252°
2026-04-25 09:17 55.26921 38.74793 10792 ft 319 kts 251°
2026-04-25 09:17 55.26095 38.71245 10573 ft 307 kts 252°
2026-04-25 09:17 55.25567 38.68976 10476 ft 298 kts 252°
2026-04-25 09:18 55.24800 38.65681 10338 ft 286 kts 252°
2026-04-25 09:18 55.24062 38.62517 10211 ft 275 kts 252°
2026-04-25 09:18 55.23347 38.59452 9951 ft 269 kts 252°
2026-04-25 09:18 55.22648 38.56444 9819 ft 265 kts 252°
2026-04-25 09:19 55.21952 38.53457 9690 ft 264 kts 252°
2026-04-25 09:19 55.21249 38.50446 9443 ft 265 kts 252°
2026-04-25 09:19 55.20550 38.47455 8967 ft 265 kts 252°
2026-04-25 09:19 55.20201 38.44327 8475 ft 260 kts 274°
2026-04-25 09:20 55.20474 38.41249 8123 ft 254 kts 283°
2026-04-25 09:20 55.20833 38.38222 7661 ft 254 kts 283°
2026-04-25 09:20 55.21192 38.35231 7101 ft 248 kts 283°
2026-04-25 09:20 55.21543 38.32313 6567 ft 243 kts 283°
2026-04-25 09:21 55.21887 38.29442 6022 ft 239 kts 283°
2026-04-25 09:21 55.22224 38.26623 5470 ft 233 kts 283°
2026-04-25 09:21 55.22546 38.23904 5068 ft 222 kts 282°
2026-04-25 09:21 55.22849 38.21320 4672 ft 212 kts 282°
2026-04-25 09:22 55.23143 38.18826 4273 ft 205 kts 282°
2026-04-25 09:22 55.23429 38.16401 3877 ft 203 kts 282°
2026-04-25 09:22 55.23696 38.13980 3667 ft 207 kts 281°
2026-04-25 09:22 55.23946 38.11452 3538 ft 214 kts 281°
2026-04-25 09:23 55.24450 38.09015 3403 ft 212 kts 301°
2026-04-25 09:23 55.25431 38.07167 3276 ft 211 kts 323°
2026-04-25 09:23 55.26643 38.05722 3152 ft 209 kts 323°
2026-04-25 09:23 55.27818 38.04327 3051 ft 199 kts 324°
2026-04-25 09:24 55.28938 38.02994 2989 ft 189 kts 323°
2026-04-25 09:24 55.30005 38.01720 2873 ft 182 kts 323°
2026-04-25 09:24 55.31032 38.00493 2686 ft 176 kts 323°
2026-04-25 09:24 55.32040 37.99289 2433 ft 169 kts 324°
2026-04-25 09:25 55.32968 37.98179 2194 ft 160 kts 324°
2026-04-25 09:25 55.33869 37.97102 2003 ft 150 kts 323°
2026-04-25 09:25 55.34701 37.96107 1778 ft 140 kts 323°
2026-04-25 09:25 55.35480 37.95174 1580 ft 134 kts 323°
2026-04-25 09:26 55.36243 37.94258 1386 ft 132 kts 324°
2026-04-25 09:26 55.36995 37.93356 1197 ft 130 kts 324°
2026-04-25 09:26 55.37745 37.92456 1016 ft 128 kts 324°
2026-04-25 09:26 55.38479 37.91574 843 ft 126 kts 323°
2026-04-25 09:27 55.39207 37.90709 660 ft 127 kts 324°
2026-04-25 09:27 55.39901 37.89857 551 ft 111 kts 327°
2026-04-25 09:27 55.40399 37.89270 562 ft 61 kts 325°
2026-04-25 09:27 55.40643 37.88975 572 ft 35 kts 326°
2026-04-25 09:28 55.40814 37.88808 576 ft 23 kts 340°
2026-04-25 09:28 55.40955 37.88757 577 ft 18 kts 354°
2026-04-25 09:28 55.41046 37.88796 577 ft 5 kts 64°
2026-04-25 09:28 55.41047 37.88799 577 ft 0 kts 66°
2026-04-25 09:29 55.41048 37.88807 582 ft 5 kts 68°
2026-04-25 09:29 55.41036 37.88866 578 ft 5 kts 135°
2026-04-25 09:29 55.41008 37.88901 576 ft 5 kts 147°
2026-04-25 09:30 55.40930 37.88995 579 ft 25 kts 145°
2026-04-25 09:30 55.40810 37.89152 573 ft 19 kts 127°
2026-04-25 09:30 55.40789 37.89367 571 ft 18 kts 71°
2026-04-25 09:30 55.40862 37.89509 575 ft 15 kts 11°
2026-04-25 09:31 55.40948 37.89439 576 ft 12 kts 342°
2026-04-25 09:31 55.40998 37.89499 579 ft 8 kts 54°
2026-04-25 09:31 55.41008 37.89527 575 ft 0 kts 56°